Location: ???????
(55.4362°N, 38.1183°E)
Time: 12:17:04
(UTC+00:00)

USA 267 - Pass Details

Date: 27 October 2021
Orbit: 1101 x 1107 km, 123.0° (Epoch: 25 November)

Event Time Altitude Azimuth Distance (km) Brightness Sun altitude
Exits shadow 17:29:46 - 191° (S) 3,556 5.8 -30.0°
Reaches altitude 10° 17:32:29 10° 209° (SSW) 2,954 5.6 -30.3°
Maximum altitude 17:35:41 14° 239° (WSW) 2,663 5.6 -30.7°
Drops below altitude 10° 17:38:54 10° 269° (W) 2,961 6.2 -31.2°
Sets 17:42:55 0° 293° (WNW) 3,924 7.3 -31.7°
